Regional Weather Roundup
Issued by NWS

Home | Current Version | Previous Version | Text Only | Print | Product List | Glossary Off
Versions: 1 2 3 4 5 6 7 8 9 10 11 12 13 14 15 16 17 18 19 20 21 22 23 24 25 26 27 28 29 30 31 32 33 34 35 36 37 38 39 40 41 42 43 44 45 46 47 48 49 50

945
ASUS43 KOAX 260810
RWRNE

WEATHER ROUNDUP FOR NEBRASKA
NATIONAL WEATHER SERVICE OMAHA NE
300 AM CDT SUN MAR 26 2017

NOTES: SATELLITE DATA IS BEING USED TO AUGMENT CLOUD COVER ABOVE
       12000 FEET.
       "FAIR" INDICATES FEW OR NO CLOUDS BELOW 12,000 FEET WITH NO
       SIGNIFICANT WEATHER AND/OR OBSTRUCTIONS TO VISIBILITY.

  * THESE STATIONS DO NOT REPORT WEATHER SUCH AS RAIN...SNOW OR FOG.

NEZ001>004-019>022-054>056-260900-
NEBRASKA PANHANDLE

CITY           SKY/WX    TMP DP  RH WIND       PRES   REMARKS
SCOTTSBLUFF    CLOUDY    45  31  58 E12       29.81S
ALLIANCE       CLOUDY    36  28  73 SE8       29.81S WCI  30
CHADRON        CLOUDY    51  32  48 S3        29.80R
KIMBALL        CLOUDY    43  33  69 S3        29.83S
SIDNEY         CLOUDY    42  30  62 S9        29.83F
$$

NEZ057>060-069>072-079>082-260900-
SOUTHWEST NEBRASKA

CITY           SKY/WX    TMP DP  RH WIND       PRES   REMARKS
NORTH PLATTE   CLOUDY    41  38  89 SE5       29.88F
IMPERIAL       FOG       39  38  96 SE7       29.86F VSB 1/4 WCI  34
LEXINGTON      CLOUDY    41  39  93 SE3       29.90S FOG
MCCOOK         FOG       40  40 100 S6        29.89F VSB 1/2
OGALLALA       CLOUDY    42  40  93 SE5       29.86F
$$

NEZ005>010-023>029-035>040-094-260900-
NORTH CENTRAL NEBRASKA

CITY           SKY/WX    TMP DP  RH WIND       PRES   REMARKS
VALENTINE      CLOUDY    40  37  89 SE8       29.87S WCI  34
AINSWORTH      CLOUDY    38  38 100 S8        29.88F FOG     WCI  33
BROKEN BOW     CLOUDY    40  39  97 S5        29.89S
O`NEILL        FOG       39  39  99 CALM      29.91R VSB 1/2
ORD            CLOUDY    39  37  92 CALM      29.90R FOG
THEDFORD       FOG       39  38  98 S8        29.88S VSB 3/4 WCI  33
$$

NEZ041-046>049-061>064-073>077-083>087-260900-
SOUTH CENTRAL NEBRASKA

CITY           SKY/WX    TMP DP  RH WIND       PRES   REMARKS
GRAND ISLAND   CLOUDY    38  38 100 E3        29.90F FOG
AURORA         CLOUDY    38  38 100 NE3       29.90S FOG
HASTINGS       CLOUDY    39  37  92 CALM      29.91S FOG
HEBRON         CLOUDY    39  38  97 CALM      29.90F FOG
HOLDREGE       CLOUDY    39  38  97 CALM      29.90S FOG
KEARNEY *      CLOUDY    39  36  87 CALM      29.92R
YORK           CLOUDY    37  37 100 CALM      29.90S FOG
$$

NEZ011>018-030>034-042>045-260900-
NORTHEAST NEBRASKA

CITY           SKY/WX    TMP DP  RH WIND       PRES   REMARKS
NORFOLK        FOG       37  36  96 NE5       29.89F VSB 3/4 WCI  33
ALBION         CLOUDY    39  38  94 CALM      29.90S FOG
BLAIR          CLOUDY    39  39  97 NW6       29.89S FOG
FREMONT        CLOUDY    39  39 100 N3        29.90F FOG
TEKAMAH        CLOUDY    40  38  93 N8        29.91S WCI  34
WAYNE          FOG       38  37  99 NE3       29.90F VSB 1/2
$$

NEZ050>053-065>068-078-088>093-260900-
SOUTHEAST NEBRASKA

CITY           SKY/WX    TMP DP  RH WIND       PRES   REMARKS
LINCOLN        CLOUDY    40  39  97 N6        29.91F
OMAHA EPPLEY   LGT RAIN  41  37  86 NW7       29.90S
BEATRICE       CLOUDY    40  40  99 N6        29.90R FOG
FALLS CITY     CLOUDY    42  40  92 N7        29.88S
NEBRASKA CITY  CLOUDY    40  40 100 N6        29.89S FOG
PLATTSMOUTH    CLOUDY    40  38  91 N5        29.89S FOG
$$

NEZ044-045-051>053-067-260900-
OMAHA AREA

CITY           SKY/WX    TMP DP  RH WIND       PRES   REMARKS
OMAHA EPPLEY   LGT RAIN  41  37  86 NW7       29.90S
BLAIR          CLOUDY    39  39  97 NW6       29.89S FOG
FREMONT        CLOUDY    39  39 100 N3        29.90F FOG
MILLARD        CLOUDY    42  40  93 N3        29.90F
OFFUTT AFB     CLOUDY    41  37  87 N7        29.89S
PLATTSMOUTH    CLOUDY    40  38  91 N5        29.89S FOG
WAHOO          CLOUDY    39  38  95 N8        29.90F FOG     WCI  34
$$




USA.gov is the U.S. government's official web portal to all federal, state and local government web resources and services.